Regional Weather Roundup
Issued by NWS Bismarck, ND

Home | Current Version | Previous Version | Text Only | Print | Product List | Glossary On
Versions: 1 2 3 4 5 6 7 8 9 10 11 12 13 14 15 16 17 18 19 20 21 22 23 24 25 26 27 28 29 30 31 32 33 34 35 36 37 38 39 40 41 42 43 44 45 46 47 48 49 50
000
ASUS43 KBIS 031110
RWRBIS

NWR BROADCAST TEXT
NATIONAL WEATHER SERVICE BISMARCK ND
600 AM CDT MON AUG 03 2015

NOTE: "FAIR" INDICATES FEW OR NO CLOUDS BELOW 12,000 FEET WITH NO
SIGNIFICANT WEATHER AND/OR OBSTRUCTIONS TO VISIBILITY.


CITY           SKY/WX    TMP DP  RH WIND       PRES   REMARKS
WILLISTON      CLEAR     50  47  89 N3        30.03S
MINOT          CLEAR     53  48  83 SW3       30.00R
MINOT AFB      CLEAR     50  49  99 W5        29.99S
BISMARCK       CLEAR     52  50  93 W5        30.01R
DICKINSON      CLEAR     54  48  80 N7        30.03S
GARRISON         N/A     52  49  89 N7        30.01R
HETTINGER ARPT CLEAR     48  44  86 NW3       30.06R
JAMESTOWN      CLEAR     53  49  86 NW5       29.96R
BEACH          FAIR      46  46 100 S3        30.06S
CROSBY         FAIR      45  45 100 CALM      30.04S
HARVEY         FAIR      50  50 100 NW7       29.99R
HAZEN          FAIR      46  45  93 CALM      30.03R
LINTON         FAIR      46  46 100 SW5       30.01R
MANDAN         FAIR      55  50  82 NW7       30.02S
OAKES            N/A     52  52 100 W5        29.96S
STANLEY        FAIR      50  50 100 CALM      30.04S
$$

CITY           SKY/WX    TMP DP  RH WIND       PRES   REMARKS
GRAND FORKS    CLEAR     49  46  90 W6        29.90R
GRAND FORKS AF CLEAR     51  48  89 W8        29.91R
DEVILS LAKE    CLEAR     54  45  71 NW8       29.94S
FARGO          CLEAR     51  46  83 W3        29.92R
CAVALIER       FAIR      50  46  87 W5        29.91R
GRAFTON        FAIR      54  50  87 W8        29.91S
GWINNER        FAIR      57  50  77 W7        29.95S
LANGDON        FAIR      45  45 100 W6        29.94S
ROLLA          FAIR      50  46  87 NW9       29.98R
WALHALLA       FAIR      52  50  93 MISG      29.92R
$$

CITY           SKY/WX    TMP DP  RH WIND       PRES   REMARKS
ABERDEEN       CLEAR     56  51  84 N6        29.96R
MOBRIDGE       CLEAR     56  56 100 CALM      29.97S
BUFFALO          N/A     58  48  69 NE6       29.99R
RAPID CITY     CLEAR     57  51  80 CALM      30.02F
GLASGOW        CLEAR     59  48  67 E12       30.01F
SIDNEY         CLEAR     52  46  82 W3        30.03S
WOLF POINT     CLEAR     53  47  79 CALM      30.04R
GLENDIVE         N/A    N/A N/A N/A MISG        N/A
MILES CITY     CLEAR     61  47  59 NE10      30.01R
BAKER          CLEAR     53  45  74 SE5       30.06R
$$

CITY           SKY/WX    TMP DP  RH WIND       PRES   REMARKS
BILLINGS       PTCLDY    62  45  53 N8        29.99F
GREAT FALLS    PTCLDY    60  45  57 CALM      29.94S
REGINA         CLEAR     50  48  93 VRB2      30.02S
ESTEVAN        CLEAR     46  45  93 W7        30.02F
$$



USA.gov is the U.S. government's official web portal to all federal, state and local government web resources and services.